Wind_Speed
83 83 84 85 86 88 89 90 90 91 91 90 89 88 87 86 85 85 84 84 83 82 81 79 79 78 78 79 79 79 79 80 80 81 81 81 82 82 82 81 79 76 71 68 66 65 64 64 64 64 63 63 63 62 60 58 56 53 51 51 51 54 59 66 72 78 82 85 86 86 86 84 82 79 77 76 75 74 74 74 73 73 72 71 70 69
85 84 85 86 87 89 90 91 91 91 91 91 90 89 88 87 86 86 85 84 84 83 82 81 81 80 81 81 81 81 81 81 81 82 82 82 82 82 82 81 78 74 70 67 66 65 65 64 64 64 64 63 62 61 58 56 54 53 54 56 61 66 72 77 80 83 85 86 87 87 85 83 81 79 77 76 75 74 73 72 72 71 70 70 69 68
88 87 87 87 89 90 91 92 92 92 92 91 91 90 89 88 87 87 86 85 85 84 84 83 83 83 83 83 83 83 83 83 83 83 83 83 83 83 82 79 76 72 69 67 66 65 65 65 65 65 65 64 62 61 59 58 59 60 64 68 71 75 78 81 83 85 86 87 87 87 85 83 80 78 77 75 74 72 71 71 71 70 69 69 68 67
91 90 89 90 91 91 92 92 92 92 91 91 91 90 89 88 88 87 87 87 86 86 86 85 85 85 85 84 84 84 84 84 84 85 85 85 84 82 80 78 75 72 69 68 67 66 66 66 67 67 66 66 65 65 65 66 67 70 72 74 77 79 81 83 85 87 87 88 88 86 84 82 80 78 76 74 73 71 71 71 71 70 69 68 67 66
93 92 92 92 91 91 91 91 91 91 91 91 90 90 89 89 88 88 88 88 88 88 88 87 87 87 86 86 86 86 86 86 86 86 86 85 83 82 79 77 74 72 70 69 69 68 69 69 69 69 69 70 70 70 71 72 74 75 77 78 80 82 84 86 87 88 88 88 87 85 83 81 79 77 75 74 73 72 72 73 73 71 69 68 66 65
94 93 93 92 91 91 91 90 90 90 90 90 90 90 89 89 89 89 89 89 89 89 89 89 88 88 88 87 87 87 87 87 87 87 86 85 83 81 79 77 75 73 72 71 71 71 71 71 72 72 73 73 74 74 75 76 77 78 80 82 83 85 87 88 88 88 88 87 86 84 82 80 79 77 75 74 74 74 74 75 75 73 70 67 65 63
94 93 92 91 91 91 90 90 90 90 90 90 90 89 89 90 90 90 91 91 91 91 90 90 90 89 88 88 87 87 87 87 87 87 86 85 83 81 80 77 76 74 74 73 73 74 74 74 74 75 75 75 76 77 78 78 80 81 83 85 86 88 89 89 89 88 88 86 84 82 81 80 78 77 75 75 75 75 77 77 76 74 70 67 64 62
93 92 91 90 90 90 90 90 90 90 89 89 89 89 89 90 91 92 92 93 92 92 91 91 90 90 89 89 88 88 88 88 88 87 86 85 84 82 81 79 77 76 76 75 76 76 76 76 77 77 77 78 78 79 80 81 83 84 86 88 89 90 90 90 89 88 87 85 83 81 80 78 77 76 75 75 76 77 79 79 78 75 71 67 64 61
92 92 91 90 89 89 90 90 90 89 89 88 88 88 89 91 92 94 94 94 94 93 92 92 91 91 90 90 90 90 90 89 89 88 87 86 85 83 82 80 79 78 77 77 78 78 78 78 79 79 79 80 81 82 83 84 85 87 88 89 90 90 90 89 89 87 85 83 81 80 78 77 76 75 75 76 77 79 80 80 78 75 71 67 63 60
94 93 91 90 90 89 89 89 89 89 88 87 88 88 90 92 94 95 96 96 95 95 94 93 92 92 92 92 92 92 91 91 90 89 88 86 85 84 82 81 80 79 79 79 79 79 80 80 80 81 81 82 83 84 85 87 88 89 90 91 91 91 90 89 88 86 84 82 80 78 77 76 75 75 76 77 79 81 82 81 78 75 71 67 63 59
97 95 93 92 91 91 90 90 90 89 89 89 89 90 92 93 95 96 97 97 97 96 96 95 94 94 94 94 94 93 93 91 90 89 88 86 85 84 82 81 80 80 80 80 80 81 81 82 82 83 84 84 85 87 88 89 90 91 91 91 91 90 90 88 86 84 82 80 79 77 76 75 75 76 77 79 81 82 83 81 78 74 70 66 62 59
99 98 97 95 94 93 93 92 92 92 91 91 92 93 94 96 97 97 98 98 99 98 98 97 97 96 96 95 95 94 93 91 90 89 88 86 85 84 82 81 81 81 81 81 81 82 83 84 85 85 86 87 88 89 90 91 92 92 92 92 91 90 89 87 85 83 81 79 77 76 76 76 76 77 79 81 82 83 83 81 77 73 69 65 62 58
102 101 99 98 98 97 96 96 96 95 95 95 95 96 97 98 99 99 99 100 100 100 100 99 99 98 97 96 95 93 92 91 90 88 87 86 85 84 83 82 82 82 82 82 83 84 85 86 87 88 89 90 91 92 92 93 93 93 93 92 91 89 88 86 84 82 80 78 77 76 76 77 78 80 81 83 84 84 83 80 76 72 68 64 60 57
103 102 101 101 100 100 99 99 99 99 99 99 99 100 100 101 101 101 101 102 102 102 102 101 99 98 97 96 94 92 91 90 89 88 87 87 86 85 84 84 83 83 84 84 85 86 88 89 89 91 92 92 93 94 94 94 94 94 93 92 90 88 86 84 83 81 79 78 77 77 78 79 81 82 84 85 85 84 82 78 74 70 66 63 59 56
104 103 102 102 102 102 101 101 101 101 102 102 102 102 102 102 102 102 103 103 103 103 102 100 99 97 96 94 93 92 90 90 89 88 88 88 87 87 86 85 85 86 86 87 88 89 90 91 92 93 94 95 95 95 95 95 94 94 92 91 89 87 85 83 82 80 79 78 78 79 80 81 83 85 86 87 86 84 81 76 71 67 64 62 59 55
104 104 103 103 103 103 103 102 102 102 103 103 103 103 103 103 103 103 103 103 103 102 101 99 97 95 94 93 93 91 90 90 90 89 89 89 89 89 88 88 88 88 89 90 91 92 93 94 95 96 96 97 97 97 96 96 94 93 92 90 88 86 84 82 81 80 80 80 80 81 83 84 86 87 88 87 86 83 78 73 68 64 62 59 57 55
105 105 104 104 104 104 104 104 104 104 104 104 104 104 104 104 104 104 103 102 101 100 99 97 95 93 93 93 93 92 92 91 91 91 91 91 91 92 91 91 90 91 92 93 93 95 96 97 98 98 99 99 98 98 97 96 94 93 91 89 87 85 83 82 81 81 81 82 83 84 86 87 88 89 89 87 85 81 76 70 66 62 58 56 55 54
106 106 106 106 105 106 106 106 105 105 105 105 105 105 105 105 104 103 102 101 100 99 98 96 94 93 92 92 93 94 93 92 92 92 92 93 93 94 94 94 93 94 94 95 96 97 98 99 100 100 100 100 99 98 97 95 94 92 90 88 86 84 83 83 82 83 84 85 86 87 88 89 90 90 89 86 83 78 73 68 63 59 55 52 51 51
107 108 107 107 108 108 108 108 107 107 107 107 107 106 106 105 104 103 102 101 100 99 97 96 95 94 93 93 94 95 95 94 94 94 94 95 96 97 97 97 97 97 98 98 99 100 101 101 102 101 101 100 99 98 96 95 93 91 89 87 86 85 84 84 85 85 87 88 89 90 90 91 91 90 88 85 80 75 70 66 62 57 53 49 48 48
108 109 109 109 109 109 109 110 110 109 109 109 108 108 107 106 105 104 103 102 101 100 98 97 96 96 95 95 96 96 96 96 96 96 96 97 98 99 100 100 100 100 101 101 102 102 103 103 102 102 101 100 99 97 96 94 92 90 89 87 87 86 86 87 88 89 90 91 91 92 92 92 91 89 87 82 77 72 67 64 60 56 51 47 45 46
109 109 110 110 110 110 111 111 111 111 111 110 110 109 108 108 107 106 105 104 103 102 101 99 99 98 98 98 98 98 99 98 99 99 99 100 101 102 103 103 103 103 103 104 104 104 103 103 102 102 100 99 98 96 95 93 92 90 89 89 89 89 89 90 91 92 92 93 93 93 93 92 90 88 85 79 74 69 65 62 58 54 50 46 44 45
110 110 111 111 111 111 112 112 112 112 112 112 111 111 110 110 109 108 107 106 105 104 103 102 102 101 101 100 100 101 101 101 101 102 103 103 104 105 106 106 105 105 105 104 104 104 103 102 102 101 100 99 97 96 94 93 92 92 91 91 91 92 92 93 93 94 95 95 95 94 93 91 89 86 82 76 71 66 63 60 57 53 49 45 44 44
113 113 113 113 113 113 113 113 114 113 113 113 112 112 112 111 111 110 109 109 107 107 106 105 105 104 103 103 103 104 104 104 104 105 105 105 106 107 107 107 106 105 104 104 104 103 103 102 101 101 100 99 97 96 95 94 94 94 94 94 94 95 95 96 96 97 97 97 96 94 93 91 88 84 79 73 68 64 61 58 55 52 48 45 43 44
117 117 117 116 116 116 116 116 115 115 115 114 114 114 113 113 112 112 111 110 110 109 108 107 106 106 105 105 105 105 105 106 106 105 105 106 106 107 107 106 105 104 104 104 103 103 102 102 102 101 100 99 98 98 97 97 96 96 96 97 97 97 98 98 99 99 98 97 96 94 92 89 86 82 76 70 65 62 59 56 53 50 47 44 43 43
122 122 121 121 120 120 119 119 118 118 117 117 116 116 115 115 114 114 113 112 111 111 110 109 108 107 107 106 106 106 106 106 106 105 105 105 106 106 106 106 104 104 104 104 104 104 103 103 103 103 102 101 100 100 99 99 99 99 99 99 100 100 101 101 101 100 99 97 95 93 91 88 84 79 74 68 63 60 57 55 52 49 47 44 43 43
126 125 125 125 124 124 123 123 122 121 121 120 119 119 118 117 117 116 116 115 114 113 112 111 110 109 109 108 108 107 107 107 107 106 105 105 105 106 106 106 106 105 105 106 106 105 105 105 105 104 104 103 103 102 102 101 101 101 102 102 103 103 103 103 102 101 99 96 94 92 90 86 82 77 71 66 61 58 55 53 51 48 46 44 43 42
128 128 127 127 127 127 126 126 125 125 124 123 122 122 121 120 119 119 118 117 117 116 114 113 113 112 111 111 110 109 109 109 108 107 107 106 106 107 108 108 108 107 107 108 108 108 107 107 107 106 106 106 105 104 104 104 104 104 104 105 105 105 105 104 103 100 98 95 93 91 88 84 79 74 68 63 59 56 53 51 49 47 46 44 43 43
129 129 129 129 128 128 128 128 128 127 127 126 125 125 124 123 122 121 121 121 120 119 117 116 115 115 114 113 112 112 111 110 110 110 109 108 108 108 110 110 110 109 109 110 110 110 110 109 109 108 108 108 107 107 106 106 106 106 107 107 107 107 106 104 102 100 97 94 92 89 85 81 76 71 65 61 57 54 52 50 48 46 45 44 44 43
130 130 130 130 130 130 129 129 129 129 128 128 127 127 126 125 124 124 124 123 122 121 120 119 118 117 116 115 115 114 113 112 112 112 111 110 110 110 112 111 111 111 111 111 111 112 111 111 111 110 110 110 109 109 109 109 109 109 109 109 108 107 106 104 101 99 96 93 90 86 82 78 73 68 63 58 55 52 50 48 47 46 45 44 44 44
131 131 131 131 131 131 131 131 131 131 130 130 129 129 128 128 127 126 126 125 124 123 122 121 121 120 118 117 116 115 114 114 114 113 112 111 111 112 113 112 112 112 113 112 112 112 113 113 113 113 112 112 112 112 111 111 111 110 110 110 108 107 105 103 100 98 94 91 87 83 79 75 70 65 60 56 53 50 48 47 46 45 44 44 44 44
133 133 133 133 133 133 133 133 132 132 132 132 131 131 130 130 129 129 128 127 126 126 125 124 123 122 120 119 117 116 116 116 116 115 114 112 112 114 114 113 113 114 114 114 113 114 114 115 116 116 115 115 114 114 114 113 112 112 111 109 108 106 104 102 99 96 92 88 84 80 76 72 67 63 58 54 51 49 47 46 45 44 44 44 44 44
135 135 134 134 134 134 134 134 134 134 134 134 133 133 132 132 131 131 130 129 129 128 127 126 125 124 123 121 120 119 118 118 118 117 116 115 115 115 116 115 115 115 116 116 116 115 116 117 118 118 118 117 117 116 116 115 113 112 110 109 107 105 103 100 98 94 90 85 81 77 73 69 65 61 56 53 49 47 46 45 44 44 43 43 43 44
137 137 137 136 136 136 136 135 135 135 135 135 135 134 134 134 133 133 132 131 131 130 129 129 128 127 125 124 123 122 121 120 120 120 119 118 117 118 118 118 117 118 118 119 119 119 118 119 119 120 120 119 119 118 117 115 114 112 110 108 105 103 101 99 95 91 87 82 78 74 70 67 63 59 55 51 48 46 45 44 43 43 43 43 43 43
138 139 139 138 138 138 138 137 137 137 137 137 136 136 136 135 135 134 134 133 133 132 132 131 130 129 128 127 126 125 125 124 123 123 122 121 121 121 121 121 121 121 121 122 122 122 122 122 122 122 122 121 120 119 117 115 113 111 108 106 104 102 99 97 93 89 84 79 76 72 69 65 61 58 54 50 48 45 44 43 43 43 42 42 43 43
138 139 139 140 140 140 140 140 140 139 139 139 138 138 138 137 137 136 136 135 135 135 134 133 132 132 131 130 130 129 128 128 127 127 126 125 125 125 125 125 125 125 125 125 125 125 125 124 124 123 122 121 120 118 116 114 111 109 107 104 102 99 97 94 90 86 81 77 74 70 67 64 60 57 54 50 47 45 44 43 42 42 42 42 43 43
136 137 138 139 140 140 141 141 141 141 141 141 141 140 140 139 139 139 138 138 137 137 136 135 135 134 133 132 132 132 131 131 131 130 129 129 129 128 128 128 128 128 128 127 127 127 126 125 124 123 122 121 119 117 115 112 109 107 105 102 99 97 94 91 87 84 80 76 72 69 66 63 60 57 54 50 47 45 43 42 42 42 42 42 43 43
133 134 136 136 137 138 139 140 140 141 141 141 141 141 141 141 140 140 140 139 139 138 138 137 136 136 135 134 134 133 133 133 132 132 131 131 131 131 130 130 129 129 128 128 127 126 125 124 123 122 121 119 118 116 113 110 108 105 103 100 97 94 92 89 85 82 78 75 71 68 65 62 60 57 54 51 48 45 44 43 42 42 42 43 43 43
129 131 132 133 134 135 136 137 137 138 138 139 139 139 139 139 139 139 139 139 138 138 137 137 137 136 135 135 134 134 134 133 132 132 132 131 131 131 130 130 129 128 127 127 126 125 124 123 121 120 119 117 116 114 111 108 106 103 100 97 94 92 89 86 83 80 77 74 71 68 65 62 59 57 54 51 49 46 45 44 43 43 43 43 44 44
124 125 126 128 129 130 131 132 133 134 134 135 135 135 136 136 136 136 136 136 136 136 135 135 135 134 134 134 133 133 132 132 131 131 130 130 130 129 128 128 127 126 125 124 123 123 122 121 120 118 117 115 114 111 108 105 103 101 98 94 92 89 87 84 82 79 76 73 70 67 65 62 60 57 55 52 50 48 46 45 44 43 43 44 44 44
116 118 119 120 122 123 125 126 127 128 129 129 130 131 131 132 132 132 132 132 132 132 132 132 131 131 131 131 131 130 130 129 128 128 128 127 127 126 126 125 125 124 123 122 121 120 119 119 118 116 115 113 111 108 105 102 100 97 94 92 90 88 85 82 80 78 75 72 70 67 65 62 60 58 56 54 51 49 48 46 45 45 44 44 45 45
112 113 114 115 115 116 117 119 120 121 122 123 124 125 126 126 127 127 127 127 127 127 127 127 127 127 127 127 127 126 126 125 124 124 124 124 124 123 123 122 122 121 120 119 118 117 116 116 115 113 111 109 107 105 102 99 96 94 92 90 88 86 83 81 79 77 75 72 70 67 65 63 61 59 57 55 53 51 49 48 47 46 46 46 46 46
112 112 112 112 113 113 113 114 114 115 116 116 117 118 119 120 120 121 121 122 122 122 122 122 122 123 123 123 122 122 121 121 120 120 120 120 120 119 119 119 118 117 117 116 115 114 112 111 110 109 108 106 103 101 99 96 93 91 89 88 86 84 82 81 79 77 75 73 70 68 66 64 62 60 58 56 54 53 51 50 49 48 48 47 47 47
114 114 113 113 113 113 113 113 113 113 113 113 114 114 114 114 114 114 115 115 116 116 116 116 116 117 118 118 118 117 116 116 115 115 116 116 116 116 115 115 114 113 113 112 112 110 108 107 106 105 103 101 100 98 96 94 91 89 87 86 85 84 83 81 79 77 75 73 71 69 67 65 63 61 59 58 56 54 53 52 51 50 50 49 49 49
115 115 115 115 115 114 114 114 114 114 114 113 113 113 112 112 112 111 112 112 112 111 111 111 111 112 112 113 113 113 112 112 111 111 111 111 112 112 111 111 110 109 109 108 108 106 104 103 102 101 100 98 97 96 94 92 90 88 87 85 84 83 83 81 80 78 76 74 72 70 68 66 65 63 61 59 58 56 55 54 53 52 52 51 51 51
116 116 116 116 116 116 116 116 116 116 115 115 114 114 113 113 112 112 111 111 111 110 110 109 109 109 109 109 109 108 108 108 107 107 107 107 108 108 108 107 107 106 105 104 103 102 101 100 99 98 97 96 95 94 93 91 90 88 87 85 84 83 83 81 80 78 77 75 73 71 70 68 66 64 63 61 59 58 57 56 55 54 54 53 53 52
116 116 116 116 117 117 117 117 117 117 116 116 116 115 115 114 114 113 113 112 112 111 110 109 109 109 108 108 107 106 106 106 105 105 105 105 105 105 105 104 104 103 103 102 101 100 99 98 97 96 95 95 94 93 92 91 90 88 87 86 85 84 83 82 81 79 78 76 74 73 71 70 68 66 65 63 61 60 59 58 57 56 56 55 55 54
116 116 116 116 116 116 116 116 116 117 117 117 117 116 116 115 115 114 114 114 113 113 112 111 110 110 110 109 107 106 106 106 105 104 104 103 103 103 103 103 102 102 101 101 100 99 98 97 96 95 94 94 94 93 92 91 90 89 88 87 86 85 84 83 82 80 79 77 76 75 73 72 70 68 67 65 63 62 61 60 59 59 58 57 56 56
117 117 116 115 115 115 115 115 116 116 116 116 116 116 116 116 115 115 115 115 114 114 113 113 112 112 111 110 109 108 107 107 106 105 105 104 104 103 103 103 102 102 101 101 100 99 98 97 96 95 94 94 94 94 93 92 91 90 89 88 87 86 85 84 83 81 80 79 78 76 75 74 72 71 69 67 65 64 63 62 61 61 60 59 58 58
118 117 117 116 116 116 116 115 115 115 115 115 115 115 115 115 115 115 115 115 115 115 114 114 114 113 112 111 110 109 109 108 108 107 106 106 105 105 104 104 103 103 102 101 101 100 98 97 96 95 94 94 94 94 93 93 92 91 90 89 88 87 87 86 84 83 81 80 79 78 77 76 74 73 71 69 68 67 66 65 64 63 62 61 60 59
117 117 117 117 117 117 116 115 115 115 114 114 114 114 114 114 114 114 115 115 115 115 115 115 114 114 113 112 112 111 110 110 110 109 108 107 107 106 106 105 105 104 104 103 102 101 99 98 97 96 95 94 94 94 94 94 93 92 91 90 89 88 88 87 86 84 83 82 81 80 79 78 76 75 73 71 70 69 68 67 66 65 64 63 62 61
114 115 115 115 116 116 116 115 115 115 114 114 113 113 113 113 113 113 113 114 114 115 114 114 113 113 113 113 112 112 111 111 111 111 110 109 108 108 108 107 106 106 105 105 104 102 101 100 98 97 96 95 94 94 94 94 94 93 92 91 90 90 89 88 87 86 85 84 83 82 81 79 78 76 75 73 72 71 70 69 68 67 66 65 64 63
Wind_Direction
269 269 270 270 270 271 271 272 273 274 275 276 277 277 277 278 278 278 279 279 280 280 281 282 282 282 282 281 282 282 282 283 284 285 286 287 289 290 291 293 293 293 291 290 290 290 290 290 290 290 291 292 293 295 296 298 298 298 298 296 295 295 295 296 298 300 302 304 306 307 308 309 309 310 310 310 310 311 313 314 315 315 314 313 313 313
267 267 268 268 268 269 270 271 272 273 274 275 276 277 277 277 277 278 278 278 279 279 280 280 281 281 281 281 281 282 282 283 284 285 286 287 288 290 291 292 292 291 290 289 289 289 289 289 289 289 290 291 292 294 295 295 295 294 292 292 292 293 295 297 300 302 303 305 306 307 308 309 309 310 310 310 311 312 314 316 317 317 315 314 314 314
266 266 266 266 267 268 269 270 271 272 273 274 275 275 276 276 276 277 277 277 277 278 278 279 279 280 281 281 281 282 282 282 283 284 285 287 288 290 291 291 290 290 288 288 288 288 288 288 288 288 288 289 290 291 291 290 290 289 290 291 292 294 297 299 301 302 304 305 306 307 308 308 309 310 311 311 312 313 316 318 319 318 317 315 315 314
266 266 266 266 267 267 268 270 271 272 272 273 273 274 275 275 275 276 276 276 276 276 277 278 278 279 280 281 281 281 281 282 283 284 285 287 288 289 290 290 289 288 287 287 287 287 287 287 286 286 286 287 287 287 288 288 288 289 290 292 294 295 297 299 301 302 304 305 306 307 308 308 309 311 312 313 314 315 318 320 321 320 318 316 315 315
266 266 266 267 267 268 269 269 270 271 271 272 272 273 274 274 274 275 275 275 275 275 276 277 278 279 279 280 280 281 281 282 283 284 285 287 288 288 289 288 287 286 286 286 286 286 286 285 285 285 285 285 285 286 287 287 288 290 291 292 294 296 297 299 301 302 304 305 306 307 308 309 310 312 313 315 316 317 319 321 321 320 319 317 315 314
266 267 267 267 268 268 269 269 269 269 270 271 271 272 273 273 273 273 273 273 274 274 275 276 277 278 279 279 280 280 281 282 283 284 285 286 287 287 287 286 286 285 285 285 285 285 285 284 284 284 284 284 285 285 286 287 288 290 291 293 294 296 298 299 301 302 304 305 306 307 308 310 311 313 314 316 317 318 319 321 321 321 319 317 315 314
267 267 267 268 268 268 268 268 268 269 269 270 271 272 272 272 272 272 272 272 273 274 275 276 277 278 278 278 279 280 281 282 283 284 285 286 286 286 285 285 284 284 284 284 284 284 284 283 283 283 283 284 284 285 286 287 288 290 291 293 295 296 298 300 301 303 304 305 306 307 309 311 312 314 315 316 317 318 319 320 321 320 318 316 314 313
266 267 267 267 267 268 268 268 268 268 269 269 270 271 271 271 271 271 271 272 273 274 275 276 276 277 277 278 279 279 280 281 282 283 284 285 284 284 284 283 283 283 283 283 283 283 283 282 282 282 283 283 284 285 286 287 289 290 292 293 295 297 299 300 302 303 305 306 307 308 310 311 313 314 315 316 316 317 318 320 320 319 318 315 313 311
265 266 266 266 266 267 267 268 268 268 269 269 269 269 269 269 270 270 271 271 272 273 274 275 276 276 277 278 278 279 280 281 282 283 283 283 283 283 283 282 282 282 282 281 281 281 281 281 281 282 282 283 284 285 286 287 289 291 292 294 296 298 299 301 302 304 305 306 307 308 310 311 312 313 314 315 315 316 318 319 319 318 316 314 312 309
264 265 265 265 265 266 266 267 268 268 268 268 268 268 268 268 269 269 270 271 272 273 274 274 275 276 277 278 278 279 280 281 282 282 282 282 282 282 281 281 281 281 280 280 280 280 280 280 281 281 282 283 284 285 287 288 290 291 293 295 296 298 300 301 303 304 305 306 307 308 310 311 312 312 313 313 314 315 317 318 318 317 315 312 310 307
264 264 264 263 264 264 265 265 266 267 267 266 266 266 267 267 268 269 270 271 272 273 274 274 275 276 277 278 278 279 280 281 281 281 281 281 281 280 280 280 280 279 279 279 279 279 279 279 280 281 282 283 284 286 287 289 290 292 294 295 297 298 300 301 302 303 305 306 307 308 309 310 311 311 312 312 313 315 316 317 316 315 313 310 308 304
264 264 263 263 263 263 263 264 264 265 265 265 265 266 266 267 268 269 270 271 272 272 273 274 275 276 276 277 278 279 279 280 280 280 280 279 279 279 279 279 279 278 278 278 278 278 278 279 280 281 282 283 285 286 288 289 291 292 294 295 297 298 300 301 302 303 304 306 307 308 309 309 310 310 311 312 313 314 315 316 315 313 311 308 305 302
264 264 264 263 263 263 263 263 263 264 264 264 265 265 266 267 268 268 269 270 271 272 273 274 275 276 276 277 277 278 278 278 278 278 278 278 278 278 278 278 277 277 277 277 277 278 278 279 280 281 282 284 285 286 288 289 291 293 294 296 297 298 300 301 302 303 304 305 306 307 308 308 309 310 310 311 312 313 314 314 313 311 309 306 302 299
264 264 264 264 263 263 263 263 263 264 264 264 265 265 266 267 267 268 269 270 271 272 273 274 275 275 276 276 277 277 277 277 277 277 277 277 277 277 277 277 276 276 276 277 277 278 279 280 280 282 283 284 286 287 288 290 291 293 294 296 297 298 299 300 301 303 304 305 306 306 307 308 308 309 310 310 311 313 313 313 312 310 307 304 300 297
263 264 264 264 264 264 264 264 264 264 264 264 265 265 266 266 267 268 268 269 271 272 273 274 275 275 275 276 276 276 276 276 276 276 276 276 276 276 276 276 276 276 276 277 277 278 279 280 281 282 283 285 286 287 289 290 292 293 294 296 297 298 299 300 301 302 303 304 305 305 306 307 307 308 309 310 311 312 312 312 310 308 305 302 298 295
263 263 263 263 263 263 264 264 264 264 264 264 265 265 265 266 267 268 268 269 271 272 273 273 274 274 275 275 275 275 275 275 275 275 275 275 275 275 275 275 275 276 276 277 277 278 279 280 281 283 284 285 286 288 289 290 292 293 294 295 297 298 299 300 301 302 303 303 304 305 305 306 307 308 309 310 311 311 311 310 308 305 302 299 296 293
262 262 262 262 263 263 263 263 263 263 264 264 265 265 265 266 267 267 268 269 270 271 272 272 273 273 273 274 274 274 274 274 274 274 274 274 275 275 275 275 275 276 276 277 278 279 280 281 282 283 284 286 287 288 289 291 292 293 294 295 296 297 298 299 300 301 302 303 303 304 305 305 306 307 308 309 310 310 310 308 306 303 300 296 293 291
261 261 261 261 262 262 262 262 263 263 263 264 264 265 265 266 267 267 268 269 269 270 270 271 271 271 271 272 272 273 273 273 273 273 274 274 274 275 275 276 276 276 277 278 279 279 280 281 282 284 285 286 287 288 290 291 292 293 294 295 296 297 298 299 299 300 301 302 303 303 304 305 305 306 307 309 309 309 308 306 304 301 296 291 287 286
260 260 260 261 261 261 261 262 262 262 263 263 264 264 265 266 266 267 267 267 268 268 269 269 269 270 270 270 271 272 272 272 272 273 273 273 274 275 276 276 276 277 277 278 279 280 281 282 283 284 285 286 287 289 290 291 292 293 294 295 295 296 297 298 299 300 300 301 302 303 303 304 305 306 307 308 308 308 306 304 301 298 293 287 281 279
259 259 260 260 260 261 261 261 261 262 262 263 263 264 264 265 265 266 266 266 267 267 267 267 268 268 268 269 269 270 271 271 272 272 272 273 274 274 275 276 276 277 278 279 280 281 281 282 283 284 285 287 288 289 290 291 291 292 293 294 295 296 296 297 298 299 300 301 301 302 303 303 304 305 306 307 307 306 304 302 299 296 291 284 276 271
258 259 259 259 260 260 260 261 261 262 262 262 263 263 264 264 264 265 265 265 266 266 266 266 266 267 267 268 268 269 270 271 271 271 272 272 273 274 275 276 276 277 278 279 280 281 282 283 283 285 286 287 288 288 289 290 291 292 293 293 294 295 296 296 297 298 299 300 301 301 302 302 303 305 306 306 306 304 302 300 297 294 289 282 273 267
257 258 258 259 259 259 260 260 261 261 262 262 263 263 263 264 264 264 265 265 265 265 265 265 266 266 267 267 268 269 269 270 270 271 272 272 273 274 275 276 277 278 278 279 280 281 282 283 284 285 286 286 287 288 289 289 290 291 292 292 293 294 295 296 297 298 299 299 300 300 301 302 303 304 305 305 304 302 300 298 295 292 288 282 273 265
257 257 258 258 259 259 260 260 261 261 262 262 262 263 263 264 264 264 265 265 265 265 266 266 266 267 267 267 268 269 269 270 271 271 272 273 274 275 276 277 277 278 279 280 280 281 282 283 284 284 285 286 287 287 288 289 289 290 291 292 292 293 294 295 296 297 298 299 299 300 300 301 302 303 303 303 302 301 298 296 293 290 286 281 274 267
256 257 257 258 258 259 259 260 260 261 261 262 262 263 263 264 264 264 265 265 265 266 266 266 267 267 267 268 268 269 270 271 271 272 273 273 274 275 276 277 278 278 279 280 280 281 282 282 283 284 285 285 286 286 287 288 288 289 290 291 292 292 293 294 295 296 297 298 299 299 300 301 301 302 302 302 300 299 296 294 291 288 285 281 276 270
256 257 257 258 258 259 259 260 260 261 261 262 262 262 263 263 264 264 265 265 265 265 266 266 266 267 267 268 269 270 271 271 272 273 273 274 275 275 276 277 277 278 278 279 280 280 281 281 282 283 284 284 285 285 286 287 288 288 289 290 291 292 293 294 295 296 297 297 298 299 299 300 300 301 300 300 298 297 294 292 289 286 283 281 277 273
257 257 257 258 258 259 259 260 260 260 261 261 262 262 263 263 263 264 264 264 265 265 265 265 266 266 267 268 269 270 270 271 272 272 273 273 274 275 276 276 277 277 277 278 279 279 280 281 281 282 283 283 284 285 285 286 287 287 288 289 290 291 292 294 294 295 296 297 297 298 298 299 299 299 299 298 297 295 292 290 287 284 282 280 278 275
257 257 258 258 258 259 259 260 260 260 261 261 261 262 262 263 263 263 263 264 264 265 265 265 266 266 267 267 268 269 270 270 271 271 272 272 273 274 274 275 276 276 276 277 278 279 279 280 280 281 282 282 283 284 284 285 286 287 288 289 290 291 292 293 294 295 295 296 297 297 298 298 298 298 297 296 295 293 291 288 285 283 280 279 278 276
257 258 258 258 259 259 259 260 260 260 261 261 261 262 262 262 263 263 263 264 264 264 264 265 266 266 267 267 268 268 269 270 270 271 271 272 272 273 273 274 275 275 276 276 277 278 278 279 280 280 281 282 282 283 284 284 285 286 287 288 289 290 292 292 293 294 295 295 296 296 297 297 297 296 296 295 293 291 289 287 284 281 279 278 277 276
258 258 258 259 259 259 259 260 260 261 261 261 261 262 262 262 262 263 263 264 264 264 264 265 265 266 266 267 267 268 269 269 270 270 271 271 271 272 273 273 274 274 275 276 276 277 278 278 279 280 280 281 282 282 283 284 285 286 287 288 289 290 291 292 292 293 294 295 295 295 295 295 295 295 294 293 292 290 288 285 282 280 278 276 276 276
258 258 259 259 259 259 260 260 260 261 261 261 261 262 262 262 262 263 263 264 264 264 264 265 265 266 266 267 267 268 268 269 269 270 270 270 270 271 272 272 273 274 274 275 275 276 277 278 279 279 280 281 281 282 283 284 285 286 287 288 289 289 290 291 292 293 293 294 294 294 294 294 294 294 293 292 290 289 286 284 281 279 277 276 275 276
258 258 258 259 259 259 260 260 260 260 261 261 261 262 262 262 262 263 263 264 264 264 264 265 265 266 266 266 267 267 268 268 269 269 269 269 270 270 271 272 272 273 274 274 274 275 276 277 278 279 280 280 281 282 283 284 285 285 286 287 288 289 289 290 291 292 292 293 293 293 293 293 293 292 292 291 289 287 285 282 280 278 276 275 275 275
257 258 258 258 259 259 259 260 260 260 261 261 261 261 262 262 262 263 263 263 263 264 264 264 265 265 266 266 266 267 267 268 268 269 269 269 269 270 270 271 271 272 273 273 274 274 275 276 277 279 279 280 281 282 283 284 284 285 286 287 287 288 289 290 290 291 291 291 291 292 292 292 292 291 291 290 288 286 284 282 279 277 275 274 274 274
257 257 258 258 258 259 259 259 260 260 260 261 261 261 262 262 262 262 263 263 263 264 264 264 264 265 265 265 266 266 266 267 267 268 268 268 268 269 270 270 270 271 272 273 273 274 275 275 276 278 279 280 281 281 282 283 284 284 285 286 287 287 288 289 289 290 290 290 290 290 291 291 291 290 289 288 287 285 283 281 279 277 275 274 274 274
258 258 258 258 258 258 259 259 259 260 260 260 261 261 261 262 262 262 262 263 263 263 264 264 264 264 264 265 265 265 266 266 267 267 267 267 268 268 269 269 270 271 271 272 273 274 274 275 276 277 278 279 280 281 282 282 283 284 284 285 286 286 287 288 288 288 289 289 289 289 290 290 290 289 288 287 286 284 282 281 278 277 275 274 273 274
258 258 259 259 259 259 259 259 259 260 260 260 261 261 261 262 262 262 262 263 263 263 263 264 264 264 264 264 264 265 265 266 266 267 267 267 268 268 269 269 270 270 271 272 273 273 274 275 276 277 277 278 279 280 281 282 282 283 284 284 285 285 286 287 287 287 287 288 288 288 289 289 289 288 287 286 285 284 282 280 278 277 275 274 273 273
259 259 259 259 259 259 260 260 260 260 260 261 261 261 261 262 262 262 263 263 263 263 263 264 264 264 264 264 264 265 265 266 266 267 267 267 268 268 269 269 270 271 271 272 272 273 274 275 275 276 277 278 278 279 280 281 282 282 283 284 284 284 285 285 286 286 286 287 287 287 288 288 288 287 287 286 285 284 282 280 278 277 275 274 273 273
259 259 259 259 260 260 260 260 260 261 261 261 261 261 262 262 262 262 263 263 263 263 264 264 264 264 264 264 265 265 265 266 266 267 267 267 268 268 269 269 270 271 271 272 272 273 274 274 275 276 277 277 278 279 280 280 281 282 282 283 283 283 284 284 284 285 285 286 286 286 287 287 287 286 286 285 284 283 282 280 279 277 276 275 274 274
259 259 259 259 260 260 260 260 260 261 261 261 261 262 262 262 263 263 263 263 263 264 264 264 264 264 265 265 265 265 265 266 266 266 267 267 268 268 269 269 270 270 271 271 272 273 273 274 275 275 276 277 278 278 279 280 280 281 281 282 282 282 282 283 283 284 284 284 285 285 286 286 286 286 285 285 284 283 282 280 279 277 276 275 275 274
260 260 260 260 260 260 260 260 260 261 261 261 262 262 262 262 263 263 263 263 264 264 264 264 264 265 265 265 265 265 265 266 266 266 267 267 268 268 269 269 270 270 271 271 272 272 273 274 274 275 276 277 277 278 279 279 279 280 280 280 281 281 281 282 282 282 283 283 284 285 285 285 285 285 284 284 284 283 282 281 279 278 277 276 276 275
262 262 261 261 261 261 261 261 261 261 261 262 262 262 262 262 263 263 263 264 264 264 264 264 264 265 265 265 265 265 266 266 266 266 267 267 268 268 268 269 269 270 270 271 272 272 273 274 274 275 276 276 277 277 278 278 278 279 279 279 280 280 280 281 281 282 282 283 283 284 284 284 284 284 284 283 283 283 282 281 280 279 278 277 277 276
263 263 263 263 262 262 262 262 262 262 262 262 262 262 262 262 263 263 263 263 264 264 264 264 265 265 265 265 265 265 266 266 266 266 267 267 267 268 268 269 269 270 270 271 271 272 273 273 274 274 275 275 276 276 277 277 277 278 278 278 279 279 280 280 280 281 281 282 283 283 283 283 283 283 283 283 283 282 282 281 281 280 279 278 277 277
264 264 264 263 263 263 263 263 263 262 262 262 262 262 262 262 263 263 263 263 263 264 264 264 264 265 265 265 265 266 266 266 266 266 267 267 267 268 268 268 269 269 270 271 271 272 272 273 273 274 274 275 275 276 276 276 276 277 277 278 278 279 279 279 280 280 281 281 282 282 282 282 282 282 282 282 282 282 282 281 281 280 280 279 278 278
264 264 264 264 264 263 263 263 263 263 263 263 263 263 263 263 263 263 263 263 263 263 264 264 264 264 264 265 265 265 266 266 266 266 266 267 267 267 268 268 269 269 270 270 270 271 271 272 272 273 273 274 274 274 275 275 276 276 276 277 277 278 279 279 279 279 280 281 281 281 281 281 281 281 281 281 281 281 281 281 281 280 280 280 279 279
264 264 264 264 264 264 263 263 263 263 263 263 263 263 263 263 263 263 263 263 263 263 264 264 264 264 264 264 265 265 265 265 266 266 266 266 267 267 267 268 268 268 269 269 270 270 271 271 271 272 272 273 273 274 274 275 275 275 276 276 277 277 278 278 279 279 280 280 280 280 281 280 280 280 280 280 281 281 281 281 281 280 280 280 279 279
264 264 264 264 263 263 263 263 263 263 263 263 263 263 263 263 263 263 263 263 263 263 263 264 264 264 264 264 264 264 265 265 265 265 265 266 266 266 267 267 267 268 268 268 269 269 270 270 270 271 271 272 272 273 273 274 275 275 275 276 276 277 277 277 278 278 279 280 280 280 280 280 280 280 280 280 280 280 280 280 280 280 280 280 280 279
265 265 264 264 264 263 263 263 263 263 263 263 263 263 263 263 263 263 263 263 263 263 263 263 263 264 264 264 264 264 264 265 265 265 265 265 265 266 266 266 267 267 267 268 268 268 269 269 270 270 271 271 272 272 273 273 274 275 275 275 276 276 276 277 277 278 278 279 279 279 279 279 279 279 279 279 279 279 279 280 280 280 280 280 279 279
268 267 266 265 265 264 264 263 263 263 263 263 263 263 263 263 263 263 263 263 263 263 263 263 263 263 263 264 264 264 264 264 264 265 265 265 265 265 266 266 266 266 267 267 267 268 268 268 269 269 270 271 271 272 272 273 273 274 274 275 275 275 276 276 277 277 277 278 278 278 278 278 278 278 278 278 279 279 279 279 279 279 279 279 279 279
269 269 268 268 267 266 265 265 264 264 263 263 263 263 262 262 262 262 262 262 262 262 263 263 263 263 263 263 263 263 264 264 264 264 264 264 265 265 265 265 266 266 266 266 267 267 267 268 268 269 269 270 270 271 271 272 272 273 273 274 274 275 275 275 276 276 277 277 277 277 277 278 278 278 278 278 278 278 278 278 279 279 279 279 278 278
269 269 269 269 268 268 267 267 266 265 265 264 264 263 263 262 262 262 262 262 262 262 262 262 262 262 262 262 262 263 263 263 263 263 264 264 264 264 264 265 265 265 265 266 266 266 266 267 267 268 268 269 269 270 270 271 271 272 272 273 273 274 274 274 275 275 276 276 276 276 276 277 277 277 277 277 278 278 278 278 278 278 278 278 278 278
268 268 268 268 268 268 268 267 267 267 266 265 265 264 264 263 263 262 262 262 262 261 261 261 261 261 261 261 261 262 262 262 262 262 262 263 263 263 263 264 264 264 264 265 265 265 266 266 266 267 267 267 268 268 269 269 270 271 271 271 272 272 273 273 274 274 274 275 275 275 275 276 276 276 277 277 277 277 277 277 278 278 278 277 277 277
267 267 267 267 267 267 267 267 267 267 267 266 266 265 265 264 264 263 263 262 262 262 261 261 261 261 261 261 261 260 260 261 261 261 261 261 262 262 262 262 263 263 263 264 264 264 265 265 265 266 266 266 266 267 267 268 269 269 270 270 271 271 271 272 272 273 273 273 273 274 274 274 275 275 276 276 276 277 277 277 277 277 277 277 277 277
Height
10622 10622 10622 10621 10620 10619 10618 10618 10619 10619 10619 10621 10622 10623 10624 10624 10625 10626 10626 10627 10627 10628 10629 10630 10630 10630 10630 10630 10629 10629 10629 10628 10628 10628 10628 10628 10628 10629 10629 10629 10630 10630 10630 10630 10629 10628 10627 10626 10624 10624 10623 10622 10622 10621 10621 10620 10620 10619 10619 10618 10617 10617 10616 10615 10614 10613 10611 10610 10609 10607 10606 10605 10604 10602 10601 10599 10597 10595 10593 10591 10588 10586 10584 10581 10579 10577
10616 10617 10617 10617 10616 10615 10614 10614 10614 10615 10614 10615 10616 10617 10618 10619 10619 10620 10621 10622 10622 10623 10624 10624 10624 10624 10624 10624 10624 10624 10623 10622 10622 10622 10623 10623 10624 10624 10624 10624 10625 10625 10625 10625 10624 10624 10622 10621 10621 10620 10619 10619 10618 10617 10617 10616 10616 10617 10616 10615 10614 10613 10612 10611 10609 10608 10607 10606 10604 10604 10602 10601 10599 10598 10597 10596 10594 10592 10589 10587 10584 10582 10579 10577 10575 10572
10610 10611 10611 10612 10611 10611 10609 10609 10610 10610 10610 10610 10611 10611 10612 10613 10614 10614 10616 10616 10617 10617 10618 10618 10618 10618 10618 10618 10618 10617 10617 10617 10617 10617 10617 10618 10619 10619 10619 10619 10619 10620 10620 10620 10619 10619 10618 10617 10617 10616 10615 10615 10614 10614 10614 10614 10613 10613 10612 10611 10609 10609 10607 10607 10606 10604 10603 10601 10601 10599 10599 10597 10596 10594 10594 10592 10590 10587 10586 10583 10581 10578 10576 10574 10571 10569
10604 10604 10604 10605 10606 10606 10606 10606 10606 10606 10606 10605 10605 10606 10606 10607 10607 10608 10609 10611 10611 10611 10612 10612 10612 10612 10612 10612 10612 10612 10612 10612 10612 10612 10612 10613 10614 10614 10614 10614 10614 10614 10615 10615 10614 10614 10614 10613 10612 10612 10611 10611 10611 10610 10610 10609 10609 10608 10607 10607 10606 10604 10604 10602 10602 10601 10599 10597 10597 10596 10595 10593 10592 10591 10589 10587 10586 10583 10581 10579 10577 10575 10573 10571 10568 10566
10597 10598 10598 10599 10599 10600 10600 10601 10601 10601 10600 10600 10599 10600 10601 10601 10601 10602 10603 10604 10604 10605 10606 10606 10607 10607 10607 10607 10607 10607 10606 10606 10606 10607 10607 10607 10608 10609 10609 10609 10609 10609 10609 10609 10609 10609 10609 10609 10608 10607 10607 10606 10606 10606 10605 10605 10604 10604 10603 10602 10601 10600 10599 10598 10597 10597 10596 10594 10593 10592 10591 10589 10587 10586 10584 10583 10581 10579 10577 10575 10574 10571 10569 10567 10565 10562
10591 10591 10591 10592 10593 10593 10594 10595 10596 10595 10595 10594 10594 10594 10594 10595 10596 10596 10596 10597 10598 10599 10599 10600 10601 10601 10601 10601 10601 10601 10601 10601 10601 10601 10602 10602 10602 10603 10604 10604 10604 10604 10604 10604 10604 10604 10604 10604 10603 10602 10602 10601 10601 10601 10600 10600 10599 10599 10598 10597 10597 10596 10595 10594 10594 10592 10591 10591 10589 10587 10586 10584 10582 10581 10579 10577 10576 10574 10572 10571 10569 10567 10566 10564 10562 10559
10583 10584 10585 10586 10586 10586 10588 10589 10589 10589 10589 10588 10587 10587 10588 10589 10589 10589 10589 10590 10591 10592 10593 10594 10594 10595 10595 10595 10595 10595 10595 10595 10595 10596 10596 10597 10597 10597 10598 10599 10599 10599 10599 10599 10599 10599 10599 10599 10598 10598 10597 10597 10596 10596 10596 10595 10595 10594 10594 10593 10592 10592 10591 10590 10589 10588 10587 10586 10585 10583 10582 10579 10577 10576 10574 10571 10570 10569 10567 10567 10565 10564 10562 10560 10559 10557
10576 10577 10578 10579 10579 10579 10581 10581 10582 10582 10583 10583 10582 10582 10582 10582 10582 10582 10582 10583 10584 10586 10586 10587 10587 10588 10589 10589 10589 10589 10589 10589 10589 10590 10591 10591 10592 10592 10592 10593 10594 10594 10594 10594 10594 10594 10594 10593 10593 10592 10592 10592 10592 10591 10591 10591 10590 10590 10589 10589 10587 10587 10586 10586 10584 10584 10582 10581 10580 10578 10576 10574 10572 10571 10569 10567 10566 10564 10564 10562 10561 10559 10558 10557 10556 10554
10571 10571 10572 10572 10573 10573 10573 10573 10574 10576 10577 10577 10577 10576 10576 10575 10574 10574 10576 10576 10577 10579 10580 10581 10581 10581 10581 10582 10582 10582 10583 10583 10584 10584 10585 10586 10586 10586 10587 10588 10589 10589 10589 10589 10589 10589 10589 10588 10587 10587 10587 10587 10587 10586 10586 10586 10585 10585 10584 10584 10583 10582 10582 10581 10580 10579 10577 10576 10575 10573 10571 10569 10567 10566 10564 10562 10561 10561 10560 10559 10557 10556 10554 10553 10552 10551
10565 10566 10566 10566 10567 10567 10567 10567 10567 10568 10571 10571 10571 10570 10569 10569 10567 10567 10568 10569 10570 10571 10573 10574 10574 10574 10574 10575 10576 10576 10577 10577 10578 10579 10579 10580 10580 10581 10581 10582 10583 10584 10584 10584 10584 10584 10583 10583 10582 10582 10582 10582 10581 10581 10581 10580 10580 10580 10579 10579 10578 10577 10577 10576 10575 10574 10572 10571 10569 10568 10566 10565 10563 10562 10561 10559 10557 10556 10556 10555 10554 10552 10551 10549 10549 10547
10558 10559 10561 10562 10561 10561 10561 10561 10561 10562 10564 10564 10564 10563 10563 10562 10562 10561 10561 10561 10562 10564 10566 10567 10568 10569 10569 10569 10569 10570 10571 10572 10572 10572 10573 10574 10574 10575 10576 10576 10577 10577 10578 10578 10578 10578 10577 10577 10577 10577 10577 10576 10576 10576 10576 10575 10575 10574 10574 10574 10573 10572 10572 10571 10570 10569 10567 10566 10565 10563 10562 10561 10559 10558 10557 10555 10554 10553 10552 10551 10549 10548 10547 10546 10545 10544
10551 10552 10554 10556 10556 10556 10556 10555 10555 10556 10557 10558 10557 10556 10556 10555 10556 10556 10556 10555 10556 10557 10558 10560 10561 10562 10563 10562 10563 10564 10564 10565 10566 10566 10566 10567 10568 10569 10569 10571 10571 10572 10572 10572 10572 10572 10572 10571 10571 10571 10571 10571 10571 10571 10571 10570 10570 10569 10569 10569 10569 10568 10567 10566 10566 10564 10563 10562 10560 10559 10557 10556 10556 10554 10553 10552 10551 10549 10549 10547 10546 10544 10543 10542 10541 10540
10542 10544 10546 10547 10548 10548 10549 10549 10549 10549 10550 10551 10550 10549 10548 10548 10549 10551 10551 10549 10549 10550 10551 10553 10554 10555 10556 10556 10557 10557 10558 10558 10559 10559 10560 10561 10561 10562 10563 10564 10565 10566 10566 10566 10566 10566 10566 10565 10565 10565 10565 10566 10565 10565 10565 10565 10565 10564 10564 10564 10564 10563 10562 10561 10561 10559 10558 10557 10556 10554 10553 10552 10551 10551 10549 10548 10547 10546 10546 10544 10542 10541 10539 10538 10537 10536
10534 10536 10537 10539 10539 10539 10541 10541 10542 10542 10542 10542 10542 10542 10542 10542 10544 10544 10544 10544 10543 10543 10545 10547 10547 10547 10548 10549 10550 10551 10551 10551 10552 10552 10553 10553 10554 10556 10557 10558 10559 10559 10560 10560 10559 10559 10559 10559 10559 10559 10559 10559 10559 10559 10560 10560 10560 10559 10559 10559 10559 10558 10557 10556 10556 10554 10553 10552 10551 10550 10549 10548 10547 10546 10545 10544 10543 10542 10542 10541 10539 10537 10536 10534 10533 10532
10526 10527 10529 10529 10530 10531 10532 10533 10534 10534 10534 10534 10535 10536 10536 10537 10537 10538 10538 10537 10536 10536 10538 10539 10540 10541 10541 10542 10542 10543 10544 10544 10544 10545 10546 10546 10547 10549 10551 10552 10552 10553 10554 10554 10553 10552 10552 10553 10553 10553 10553 10553 10554 10554 10554 10554 10554 10554 10554 10554 10553 10552 10552 10551 10550 10549 10549 10547 10547 10546 10545 10544 10543 10542 10541 10540 10539 10539 10538 10537 10536 10534 10532 10531 10529 10527
10517 10520 10521 10521 10521 10522 10524 10526 10526 10527 10526 10527 10528 10529 10530 10530 10529 10530 10531 10531 10530 10530 10532 10532 10533 10534 10533 10534 10535 10536 10537 10537 10537 10538 10539 10539 10540 10542 10544 10546 10546 10546 10546 10547 10546 10546 10546 10546 10547 10547 10547 10547 10547 10548 10549 10549 10549 10549 10549 10549 10548 10547 10547 10546 10545 10544 10544 10543 10542 10541 10541 10540 10539 10538 10537 10536 10536 10535 10534 10533 10532 10531 10530 10528 10525 10522
10511 10512 10512 10513 10514 10514 10515 10517 10518 10519 10519 10519 10520 10521 10521 10521 10521 10522 10524 10524 10524 10524 10525 10526 10527 10527 10527 10526 10527 10528 10529 10530 10530 10531 10532 10532 10532 10534 10537 10539 10539 10538 10539 10539 10539 10539 10539 10539 10540 10540 10541 10541 10542 10542 10542 10542 10543 10543 10543 10543 10542 10542 10541 10541 10540 10539 10539 10539 10537 10537 10536 10535 10534 10534 10533 10532 10532 10531 10530 10529 10528 10527 10527 10525 10522 10519
10504 10504 10505 10506 10506 10506 10507 10509 10510 10510 10511 10511 10511 10512 10512 10513 10514 10516 10516 10517 10517 10518 10519 10519 10521 10522 10522 10521 10520 10519 10522 10524 10524 10524 10525 10526 10526 10526 10529 10531 10531 10531 10532 10532 10532 10532 10532 10533 10533 10534 10534 10535 10536 10536 10536 10536 10537 10537 10537 10537 10536 10536 10536 10535 10535 10534 10534 10534 10534 10532 10532 10531 10530 10529 10529 10529 10527 10527 10526 10525 10524 10524 10523 10522 10519 10517
10494 10496 10497 10498 10497 10497 10499 10500 10501 10502 10502 10502 10503 10504 10505 10506 10507 10508 10509 10510 10511 10512 10512 10514 10514 10515 10516 10515 10513 10513 10516 10517 10517 10517 10519 10519 10519 10519 10521 10522 10524 10524 10524 10525 10525 10526 10526 10526 10527 10527 10528 10529 10529 10529 10530 10530 10531 10531 10531 10531 10531 10531 10530 10530 10530 10530 10529 10529 10529 10529 10527 10527 10526 10526 10525 10524 10524 10522 10521 10521 10521 10520 10519 10517 10516 10515
10486 10487 10488 10489 10489 10491 10491 10491 10492 10492 10494 10494 10494 10496 10497 10497 10499 10501 10502 10502 10504 10505 10506 10507 10509 10509 10509 10509 10508 10508 10509 10511 10511 10511 10511 10512 10512 10512 10513 10515 10516 10516 10516 10517 10518 10519 10520 10520 10520 10521 10522 10522 10522 10523 10523 10524 10524 10524 10525 10525 10525 10525 10525 10525 10525 10525 10525 10524 10524 10524 10523 10522 10522 10521 10521 10521 10519 10519 10517 10517 10516 10515 10514 10513 10512 10512
10478 10479 10478 10479 10481 10482 10482 10482 10483 10484 10485 10486 10487 10488 10489 10489 10491 10493 10494 10495 10497 10498 10499 10501 10502 10502 10502 10503 10502 10502 10503 10504 10504 10504 10504 10506 10506 10506 10506 10508 10509 10509 10509 10510 10511 10512 10513 10513 10514 10514 10515 10516 10516 10517 10517 10517 10518 10519 10519 10519 10519 10519 10519 10520 10520 10520 10520 10520 10519 10519 10519 10518 10517 10517 10517 10516 10516 10515 10514 10512 10511 10510 10509 10508 10507 10507
10470 10470 10469 10471 10473 10473 10472 10473 10475 10476 10477 10478 10479 10479 10479 10481 10482 10484 10485 10487 10489 10490 10491 10492 10494 10495 10496 10497 10497 10496 10497 10498 10498 10497 10497 10499 10499 10497 10499 10501 10502 10502 10502 10502 10504 10505 10506 10506 10507 10507 10509 10509 10510 10511 10511 10512 10512 10513 10513 10514 10514 10514 10514 10515 10515 10515 10515 10515 10515 10514 10514 10514 10513 10513 10513 10512 10512 10511 10509 10507 10506 10505 10504 10504 10503 10503
10461 10461 10462 10464 10464 10464 10464 10464 10466 10468 10470 10471 10471 10470 10471 10472 10474 10475 10476 10478 10480 10481 10482 10484 10486 10487 10489 10490 10490 10490 10491 10491 10491 10491 10491 10492 10491 10490 10491 10494 10495 10494 10494 10495 10497 10498 10499 10499 10500 10501 10502 10503 10504 10505 10506 10506 10507 10507 10507 10508 10508 10509 10509 10509 10510 10510 10511 10510 10510 10510 10509 10509 10509 10509 10509 10509 10508 10507 10505 10503 10502 10501 10500 10499 10499 10499
10452 10453 10454 10455 10456 10456 10457 10457 10457 10459 10461 10462 10464 10464 10464 10465 10466 10467 10468 10470 10472 10473 10475 10477 10479 10480 10481 10481 10482 10483 10482 10483 10484 10484 10484 10484 10482 10482 10484 10486 10487 10487 10487 10487 10489 10491 10492 10492 10493 10494 10496 10497 10498 10499 10500 10501 10501 10502 10502 10502 10503 10504 10504 10504 10505 10505 10506 10505 10505 10505 10506 10505 10504 10504 10504 10504 10503 10502 10501 10499 10497 10496 10496 10495 10494 10494
10444 10445 10446 10446 10447 10448 10449 10450 10451 10451 10452 10454 10455 10456 10457 10458 10459 10459 10461 10462 10464 10466 10467 10469 10471 10472 10472 10474 10475 10475 10474 10475 10476 10477 10477 10476 10476 10476 10476 10479 10480 10481 10480 10481 10482 10485 10486 10486 10487 10488 10491 10492 10493 10494 10495 10496 10496 10496 10497 10497 10497 10498 10499 10499 10500 10500 10500 10500 10500 10500 10500 10500 10499 10499 10499 10499 10498 10497 10496 10494 10493 10492 10491 10491 10491 10490
10435 10436 10437 10438 10439 10440 10441 10442 10442 10444 10444 10446 10446 10447 10449 10450 10451 10452 10453 10454 10456 10458 10461 10462 10463 10464 10464 10467 10468 10467 10467 10468 10470 10471 10470 10470 10470 10469 10469 10471 10474 10474 10473 10474 10476 10478 10479 10479 10481 10482 10484 10486 10487 10489 10490 10491 10491 10491 10491 10492 10492 10492 10493 10494 10494 10495 10495 10495 10494 10494 10494 10494 10494 10494 10494 10494 10493 10492 10491 10490 10489 10488 10487 10487 10486 10486
10426 10427 10428 10429 10431 10431 10432 10432 10434 10435 10436 10437 10439 10439 10441 10442 10443 10444 10444 10445 10447 10450 10453 10454 10455 10456 10458 10460 10461 10461 10461 10462 10463 10464 10464 10464 10464 10464 10462 10464 10467 10467 10467 10467 10468 10471 10472 10474 10474 10476 10478 10480 10482 10484 10485 10485 10486 10486 10486 10486 10487 10487 10488 10488 10489 10489 10490 10490 10489 10489 10489 10489 10489 10489 10489 10489 10488 10487 10486 10486 10484 10484 10483 10482 10482 10482
10416 10417 10419 10420 10421 10422 10423 10424 10425 10426 10427 10429 10430 10431 10433 10434 10436 10436 10435 10436 10439 10443 10446 10446 10447 10449 10451 10452 10452 10453 10454 10456 10456 10456 10457 10459 10459 10457 10456 10457 10460 10461 10461 10461 10461 10463 10466 10467 10468 10469 10472 10474 10476 10477 10479 10480 10481 10481 10481 10481 10481 10482 10482 10483 10484 10484 10485 10485 10484 10484 10484 10484 10484 10484 10484 10484 10483 10482 10482 10481 10480 10479 10479 10479 10478 10478
10407 10408 10409 10411 10412 10413 10414 10416 10417 10418 10419 10421 10421 10423 10424 10426 10427 10427 10426 10427 10431 10435 10436 10437 10438 10441 10443 10444 10445 10446 10448 10449 10449 10449 10451 10453 10452 10449 10449 10451 10453 10454 10453 10454 10455 10456 10458 10459 10461 10463 10465 10467 10469 10471 10473 10475 10476 10476 10476 10476 10476 10476 10476 10477 10478 10479 10479 10480 10480 10479 10479 10479 10479 10479 10479 10479 10478 10477 10477 10476 10476 10475 10474 10474 10474 10474
10398 10399 10401 10402 10403 10404 10406 10407 10408 10409 10410 10412 10413 10414 10416 10417 10418 10418 10419 10421 10424 10426 10427 10427 10430 10432 10435 10437 10438 10439 10440 10440 10441 10442 10445 10446 10444 10441 10442 10445 10446 10446 10446 10448 10449 10449 10450 10451 10454 10457 10459 10460 10462 10464 10466 10468 10470 10471 10471 10471 10471 10471 10471 10471 10472 10472 10474 10474 10474 10474 10474 10474 10474 10474 10474 10474 10473 10472 10472 10471 10471 10471 10470 10470 10470 10469
10389 10390 10391 10392 10393 10394 10396 10397 10398 10399 10401 10402 10404 10405 10406 10407 10409 10411 10412 10414 10415 10416 10417 10419 10421 10424 10426 10429 10431 10431 10431 10431 10432 10435 10437 10438 10436 10434 10436 10439 10439 10438 10439 10441 10443 10444 10443 10444 10446 10449 10451 10453 10454 10456 10459 10461 10463 10464 10465 10465 10465 10465 10465 10465 10466 10466 10467 10468 10468 10469 10469 10468 10468 10468 10468 10468 10468 10467 10467 10467 10466 10466 10466 10466 10466 10465
10380 10381 10382 10382 10384 10385 10386 10387 10388 10389 10391 10392 10393 10395 10396 10398 10400 10402 10404 10405 10406 10407 10409 10411 10413 10415 10417 10420 10422 10422 10422 10423 10424 10427 10429 10429 10428 10427 10429 10431 10432 10432 10432 10434 10436 10437 10438 10437 10439 10441 10444 10446 10447 10449 10451 10454 10456 10457 10458 10459 10459 10459 10459 10459 10459 10460 10461 10462 10462 10462 10463 10462 10462 10462 10463 10463 10463 10462 10462 10462 10462 10462 10461 10461 10461 10461
10371 10372 10372 10373 10374 10376 10377 10377 10378 10379 10381 10382 10383 10384 10386 10388 10390 10392 10394 10395 10397 10399 10401 10402 10404 10407 10409 10411 10412 10414 10414 10416 10417 10418 10420 10421 10421 10420 10421 10424 10425 10425 10425 10427 10429 10431 10432 10432 10433 10434 10436 10438 10440 10442 10445 10447 10449 10451 10452 10452 10452 10452 10452 10452 10453 10454 10455 10456 10457 10457 10457 10457 10457 10457 10457 10458 10458 10458 10457 10457 10457 10457 10457 10457 10457 10457
10360 10361 10362 10364 10365 10366 10367 10367 10369 10370 10371 10372 10373 10374 10376 10377 10380 10382 10384 10386 10387 10389 10391 10393 10396 10398 10400 10402 10404 10404 10406 10407 10408 10410 10412 10412 10412 10412 10414 10416 10417 10418 10419 10420 10422 10423 10425 10426 10427 10429 10430 10431 10433 10436 10438 10441 10442 10444 10445 10446 10446 10446 10446 10446 10447 10447 10448 10449 10451 10451 10451 10452 10452 10452 10452 10453 10453 10453 10453 10453 10452 10452 10452 10453 10453 10453
10349 10351 10352 10353 10354 10356 10357 10357 10359 10360 10361 10362 10364 10365 10366 10367 10369 10371 10373 10375 10377 10379 10381 10384 10386 10388 10391 10393 10394 10396 10396 10397 10399 10402 10404 10404 10404 10405 10406 10408 10409 10411 10412 10414 10414 10416 10418 10419 10421 10422 10424 10425 10426 10428 10431 10433 10436 10437 10438 10439 10439 10439 10439 10439 10440 10441 10442 10443 10444 10445 10446 10446 10446 10447 10447 10447 10448 10448 10448 10448 10448 10448 10448 10449 10449 10449
10339 10340 10341 10341 10343 10344 10346 10347 10348 10349 10351 10352 10353 10354 10356 10357 10359 10361 10362 10365 10367 10369 10372 10374 10376 10379 10381 10384 10386 10386 10387 10388 10391 10394 10396 10396 10396 10397 10399 10401 10401 10403 10406 10407 10407 10409 10411 10412 10414 10415 10417 10419 10419 10421 10422 10426 10428 10430 10431 10432 10432 10433 10432 10433 10434 10434 10435 10436 10437 10438 10439 10440 10441 10441 10441 10442 10443 10443 10444 10444 10444 10444 10444 10444 10444 10444
10328 10329 10329 10330 10332 10333 10334 10336 10337 10338 10339 10341 10342 10344 10346 10347 10349 10351 10352 10354 10357 10359 10361 10364 10366 10368 10371 10374 10376 10377 10378 10380 10382 10385 10386 10387 10387 10389 10391 10392 10393 10395 10398 10399 10400 10401 10403 10405 10407 10407 10409 10411 10412 10413 10415 10417 10420 10422 10423 10424 10426 10426 10426 10427 10427 10428 10429 10430 10431 10432 10433 10434 10434 10435 10436 10437 10437 10438 10439 10439 10439 10439 10439 10439 10440 10440
10316 10317 10318 10319 10321 10322 10323 10324 10325 10326 10327 10329 10331 10332 10334 10337 10338 10340 10341 10344 10346 10349 10351 10354 10356 10358 10361 10363 10365 10367 10369 10371 10374 10376 10377 10377 10379 10381 10382 10384 10385 10387 10389 10391 10392 10394 10396 10397 10399 10400 10401 10402 10404 10406 10408 10410 10412 10414 10414 10416 10418 10419 10420 10421 10421 10422 10422 10424 10424 10426 10427 10427 10429 10429 10431 10431 10432 10433 10434 10434 10434 10434 10435 10435 10435 10436
10304 10306 10306 10307 10309 10311 10312 10312 10314 10314 10316 10318 10320 10322 10324 10326 10327 10329 10331 10333 10335 10338 10341 10342 10345 10347 10349 10352 10354 10356 10359 10362 10364 10366 10367 10369 10370 10372 10374 10376 10377 10378 10380 10382 10384 10386 10387 10389 10390 10391 10393 10394 10396 10398 10401 10402 10404 10406 10407 10409 10411 10412 10413 10414 10414 10416 10416 10417 10419 10419 10421 10422 10423 10424 10424 10426 10427 10427 10428 10428 10429 10429 10430 10431 10431 10431
10292 10294 10295 10296 10297 10299 10301 10301 10302 10304 10306 10307 10309 10311 10313 10315 10317 10318 10320 10322 10324 10327 10329 10332 10334 10336 10339 10341 10342 10345 10348 10351 10354 10356 10358 10359 10361 10362 10364 10366 10368 10369 10371 10374 10376 10377 10379 10381 10382 10383 10385 10387 10388 10390 10392 10395 10397 10399 10401 10402 10404 10404 10406 10407 10408 10409 10410 10411 10412 10413 10414 10416 10417 10418 10419 10420 10421 10421 10422 10423 10424 10424 10426 10426 10426 10426
10281 10282 10284 10284 10286 10287 10289 10291 10291 10293 10295 10297 10299 10300 10302 10304 10306 10307 10309 10311 10313 10316 10318 10321 10323 10326 10327 10329 10332 10334 10337 10341 10344 10346 10349 10350 10351 10352 10354 10357 10359 10361 10362 10365 10367 10369 10371 10372 10374 10375 10377 10379 10381 10382 10384 10386 10389 10391 10393 10394 10395 10396 10398 10400 10401 10402 10403 10404 10406 10407 10408 10409 10411 10412 10413 10414 10415 10416 10417 10418 10419 10419 10420 10421 10422 10422
10269 10271 10271 10272 10274 10276 10277 10279 10281 10282 10284 10286 10288 10289 10291 10292 10295 10298 10300 10301 10302 10305 10307 10310 10313 10315 10317 10318 10320 10323 10327 10330 10333 10336 10339 10340 10341 10343 10345 10347 10349 10351 10354 10357 10359 10360 10362 10364 10366 10367 10369 10371 10373 10375 10376 10378 10381 10384 10386 10387 10388 10390 10392 10392 10394 10395 10397 10397 10399 10401 10402 10403 10404 10406 10407 10409 10409 10411 10412 10412 10413 10414 10415 10416 10416 10417
10257 10259 10259 10261 10262 10265 10266 10267 10269 10271 10273 10274 10276 10277 10279 10281 10284 10288 10291 10291 10292 10294 10297 10300 10302 10305 10306 10308 10310 10312 10316 10320 10324 10326 10329 10331 10332 10334 10336 10338 10340 10342 10346 10348 10350 10352 10354 10356 10359 10360 10361 10362 10365 10367 10368 10370 10373 10376 10378 10379 10382 10384 10386 10385 10386 10389 10390 10391 10392 10394 10396 10397 10398 10400 10401 10403 10404 10405 10406 10407 10408 10409 10409 10410 10411 10411
10245 10246 10247 10249 10252 10253 10255 10256 10257 10259 10260 10262 10264 10266 10268 10271 10274 10277 10280 10281 10282 10284 10287 10290 10292 10295 10297 10298 10300 10302 10306 10310 10314 10317 10319 10321 10322 10324 10327 10329 10331 10334 10337 10339 10342 10344 10346 10348 10350 10351 10353 10356 10357 10359 10361 10362 10365 10367 10370 10372 10374 10376 10376 10377 10379 10381 10382 10384 10386 10387 10389 10391 10392 10394 10396 10397 10398 10399 10401 10401 10402 10403 10404 10405 10406 10406
10232 10234 10236 10237 10239 10241 10242 10244 10245 10247 10248 10251 10253 10256 10257 10259 10262 10266 10267 10270 10272 10274 10276 10279 10282 10285 10287 10288 10290 10294 10297 10301 10304 10307 10310 10312 10314 10316 10318 10320 10322 10325 10327 10330 10332 10335 10337 10340 10341 10343 10346 10348 10350 10351 10353 10355 10357 10360 10362 10364 10367 10369 10369 10371 10372 10374 10375 10377 10379 10381 10383 10385 10387 10389 10390 10391 10392 10394 10394 10396 10397 10397 10399 10399 10401 10401
10219 10221 10222 10224 10226 10229 10230 10232 10233 10235 10237 10241 10242 10244 10246 10248 10251 10254 10256 10258 10261 10263 10266 10269 10272 10274 10276 10278 10281 10285 10289 10292 10294 10297 10300 10302 10305 10307 10309 10311 10313 10316 10319 10321 10323 10326 10329 10331 10333 10335 10338 10341 10342 10343 10345 10347 10350 10352 10354 10357 10360 10362 10363 10364 10366 10367 10369 10371 10372 10374 10376 10379 10381 10382 10383 10385 10386 10387 10389 10390 10391 10392 10393 10394 10395 10396
10202 10204 10207 10209 10212 10216 10217 10219 10221 10223 10226 10228 10231 10232 10234 10237 10241 10242 10244 10246 10249 10252 10255 10257 10261 10263 10266 10267 10271 10276 10280 10282 10284 10287 10291 10293 10296 10298 10299 10302 10304 10307 10309 10312 10314 10317 10320 10323 10326 10328 10331 10333 10335 10336 10337 10340 10343 10345 10347 10349 10352 10354 10356 10357 10358 10361 10362 10364 10366 10367 10370 10373 10374 10376 10377 10379 10381 10382 10383 10384 10386 10387 10387 10389 10389 10391
10186 10188 10191 10194 10197 10200 10202 10205 10207 10211 10213 10216 10217 10220 10223 10227 10230 10232 10233 10235 10237 10241 10244 10247 10249 10252 10255 10257 10262 10266 10270 10272 10274 10277 10281 10284 10286 10289 10291 10293 10296 10298 10301 10303 10306 10309 10312 10315 10318 10321 10323 10326 10327 10329 10330 10333 10336 10337 10339 10342 10345 10347 10348 10349 10351 10354 10356 10358 10359 10361 10363 10366 10367 10369 10371 10373 10375 10376 10377 10378 10379 10381 10382 10383 10384 10385
10172 10174 10176 10179 10182 10184 10186 10189 10192 10196 10199 10202 10204 10207 10210 10214 10218 10221 10222 10224 10226 10229 10232 10236 10238 10241 10244 10248 10252 10256 10259 10262 10264 10267 10271 10273 10276 10279 10282 10284 10286 10289 10292 10294 10297 10300 10304 10307 10310 10313 10316 10319 10321 10322 10323 10326 10328 10330 10332 10335 10337 10339 10341 10342 10345 10347 10350 10351 10352 10354 10357 10359 10360 10362 10364 10367 10368 10369 10371 10372 10374 10375 10376 10377 10379 10379
10159 10161 10164 10166 10167 10169 10172 10174 10177 10180 10184 10187 10189 10192 10196 10200 10204 10207 10210 10213 10215 10217 10221 10223 10227 10231 10234 10238 10242 10246 10249 10252 10255 10257 10261 10263 10267 10271 10273 10275 10277 10280 10283 10285 10288 10291 10296 10299 10302 10306 10309 10312 10315 10316 10317 10319 10321 10323 10326 10328 10330 10332 10334 10336 10338 10341 10343 10344 10346 10349 10351 10352 10354 10356 10358 10360 10361 10363 10364 10366 10367 10369 10370 10371 10372 10374
10147 10149 10152 10154 10155 10157 10159 10161 10163 10166 10169 10172 10174 10178 10182 10186 10189 10192 10196 10199 10202 10204 10208 10211 10215 10219 10223 10227 10231 10234 10239 10242 10246 10248 10251 10254 10257 10261 10264 10266 10269 10271 10274 10276 10279 10282 10287 10291 10294 10297 10301 10305 10308 10310 10311 10312 10314 10316 10319 10320 10322 10325 10328 10329 10331 10334 10337 10338 10340 10342 10344 10346 10347 10349 10351 10353 10355 10356 10358 10360 10361 10362 10364 10366 10367 10367